GW3417 Weather Reports


Display with metric or nautical units.
time (UTC)temp
F
wind
direction
speed
MPH
gust
MPH
rain 1hr
in
rain 24hr
in
rain mn
in
humidity
%
barometer
mb
20260507134803 57 203 6.0 27.0 0.09 0.53 0.53 77 1010.0
20260507134253 58 180 10.0 27.0 0.09 0.53 0.53 76 1009.3
20260507133743 58 248 8.0 21.0 0.09 0.53 0.53 77 1009.7
20260507133232 58 248 10.0 20.0 0.09 0.53 0.53 76 1009.4
20260507132722 58 248 9.0 18.0 0.09 0.53 0.53 76 1009.9
20260507132213 58 225 8.0 16.0 0.09 0.53 0.53 78 1010.2
20260507131702 57 248 8.0 15.0 0.09 0.53 0.53 81 1009.7
20260507131153 58 203 6.0 11.0 0.09 0.53 0.53 84 1010.5
20260507125622 57 248 4.0 18.0 0.07 0.51 0.52 82 1011.3
20260507125112 58 203 6.0 18.0 0.05 0.48 0.48 78 1010.7
20260507124603 60 225 5.0 23.0 0.00 0.44 0.44 67 1010.0
20260507124052 61 270 6.0 23.0 0.00 0.44 0.44 64 1012.6
20260507123541 61 293 8.0 20.0 0.00 0.44 0.44 66 1014.3
20260507122521 61 203 6.0 20.0 0.00 0.44 0.44 66 1007.5
20260507120951 61 180 4.0 17.0 0.00 0.44 0.44 68 1007.2
20260507120441 61 90 9.0 17.0 0.00 0.44 0.44 69 1007.2
20260507115931 61 180 8.0 15.0 0.00 0.44 0.44 68 1007.3
20260507115421 61 158 6.0 16.0 0.00 0.44 0.44 69 1007.0
20260507114911 61 203 8.0 16.0 0.00 0.44 0.44 70 1006.6
20260507114401 61 225 4.0 15.0 0.00 0.44 0.44 71 1006.7
20260507113851 61 203 6.0 15.0 0.00 0.44 0.44 71 1006.2
20260507113340 61 225 6.0 15.0 0.00 0.44 0.44 72 1006.0
20260507112320 62 158 4.0 14.0 0.00 0.44 0.44 72 1005.9
20260507111301 62 113 4.0 14.0 0.00 0.44 0.44 74 1005.7
20260507105730 62 203 4.0 17.0 0.00 0.44 0.44 76 1005.4
20260507105220 62 180 8.0 17.0 0.00 0.44 0.44 75 1005.2
20260507104710 62 203 7.0 23.0 0.00 0.44 0.44 75 1004.6
20260507104200 62 158 10.0 23.0 0.00 0.44 0.44 75 1004.5
20260507103649 62 158 8.0 21.0 0.00 0.44 0.44 77 1004.6
20260507103139 62 180 9.0 21.0 0.00 0.44 0.44 76 1004.6
20260507102629 62 225 11.0 24.0 0.00 0.44 0.44 78 1004.7
20260507102118 62 158 5.0 24.0 0.00 0.44 0.44 81 1004.3
20260507101609 61 158 7.0 18.0 0.00 0.44 0.44 85 1004.3
20260507101058 60 158 10.0 17.0 0.01 0.44 0.44 91 1004.5
20260507100549 61 225 8.0 18.0 0.04 0.44 0.44 94 1004.1
20260507100039 63 180 9.0 18.0 0.04 0.44 0.44 96 1004.0
20260507095528 64 225 5.0 16.0 0.04 0.44 0.44 97 1004.0
20260507095018 64 203 4.0 15.0 0.04 0.44 0.44 97 1004.3
20260507094505 64 203 8.0 15.0 0.04 0.44 0.44 97 1004.6
20260507093958 64 225 6.0 18.0 0.04 0.44 0.44 97 1004.5
20260507093448 64 180 7.0 18.0 0.04 0.44 0.44 97 1004.6
20260507092938 64 203 8.0 17.0 0.04 0.44 0.44 97 1004.7
20260507092427 64 203 5.0 17.0 0.04 0.44 0.44 97 1004.6
20260507091917 64 180 4.0 14.0 0.04 0.44 0.44 97 1004.7
20260507090858 65 203 5.0 13.0 0.00 0.40 0.41 97 1004.8
20260507090347 65 225 5.0 13.0 0.00 0.40 0.40 97 1004.7
20260507085843 65 203 4.0 11.0 0.00 0.40 0.40 97 1004.5
20260507085326 65 203 5.0 11.0 0.00 0.40 0.40 97 1004.5
20260507084817 64 180 5.0 13.0 0.01 0.40 0.40 97 1004.2
20260507084307 64 203 4.0 13.0 0.01 0.40 0.40 97 1004.1
20260507083757 64 180 5.0 13.0 0.01 0.40 0.40 97 1003.8
20260507082736 65 180 4.0 16.0 0.01 0.40 0.40 97 1003.5
20260507082226 65 203 4.0 16.0 0.01 0.40 0.40 97 1003.6
20260507081716 65 225 5.0 11.0 0.02 0.40 0.40 97 1003.7
20260507081206 65 225 4.0 11.0 0.24 0.40 0.40 97 1003.7
20260507080656 65 203 4.0 11.0 0.30 0.40 0.40 97 1003.5
20260507080146 65 203 3.0 11.0 0.30 0.40 0.40 97 1003.5
20260507075635 65 203 5.0 11.0 0.30 0.40 0.40 97 1003.3
20260507074616 65 180 4.0 14.0 0.37 0.39 0.39 97 1002.8
20260507073555 66 135 6.0 13.0 0.39 0.39 0.39 97 1003.2
20260507073045 66 180 5.0 13.0 0.39 0.39 0.39 97 1003.1
20260507072535 66 203 4.0 14.0 0.39 0.39 0.39 97 1003.4
20260507072025 66 225 8.0 14.0 0.39 0.39 0.39 97 1003.5
20260507071005 66 203 3.0 11.0 0.13 0.13 0.13 97 1003.5
20260507065944 67 158 5.0 17.0 0.11 0.11 0.11 94 1003.2
20260507065434 67 135 10.0 20.0 0.09 0.09 0.11 95 1003.2
20260507064924 69 203 11.0 20.0 0.08 0.08 0.08 96 1002.5
20260507064414 71 203 5.0 13.0 0.01 0.01 0.01 95 1002.7
20260507063904 71 293 0.0 2.0 0.00 0.00 0.00 95 1002.1
20260507062843 71 338 0.0 2.0 0.00 0.00 0.00 95 1002.2
20260507062334 71 338 0.0 2.0 0.00 0.00 0.00 95 1002.3
20260507061824 71 315 0.0 2.0 0.00 0.00 0.00 95 1002.6
20260507061313 71 315 0.0 2.0 0.00 0.00 0.00 95 1002.4
20260507060254 71 315 0.0 0.0 0.00 0.00 0.00 95 1002.7
20260507055743 71 315 0.0 0.0 0.00 0.00 0.00 94 1002.6
20260507055232 71 315 0.0 0.0 0.00 0.00 0.00 94 1002.8
20260507054212 72 315 0.0 0.0 0.00 0.00 0.00 94 1002.7
20260507053152 72 315 0.0 2.0 0.00 0.00 0.00 94 1002.8
20260507052642 72 315 0.0 2.0 0.00 0.00 0.00 94 1002.5
20260507052132 72 338 0.0 2.0 0.00 0.00 0.00 94 1002.6
20260507051622 72 338 0.0 2.0 0.00 0.00 0.00 94 1002.4
20260507051112 72 338 0.0 0.0 0.00 0.00 0.00 94 1002.6
20260507050601 72 315 0.0 0.0 0.00 0.00 0.00 93 1002.7
20260507045542 72 315 0.0 0.0 0.00 0.00 0.00 93 1002.6
20260507045031 72 315 0.0 0.0 0.00 0.00 0.00 93 1002.5
20260507044531 72 315 0.0 0.0 0.00 0.00 0.00 93 1002.5
20260507043501 73 315 0.0 2.0 0.00 0.00 0.00 93 1002.7
20260507042950 73 338 0.0 2.0 0.00 0.00 0.00 93 1002.7
20260507042441 73 0 0.0 2.0 0.00 0.00 0.00 93 1002.8
20260507041931 73 0 0.0 2.0 0.00 0.00 0.00 92 1002.7
20260507041420 73 0 1.0 2.0 0.00 0.00 0.00 92 1003.0
20260507040910 73 338 1.0 2.0 0.00 0.00 0.00 92 1002.8
20260507035850 73 338 0.0 2.0 0.00 0.00 0.00 92 1002.8
20260507035340 73 315 0.0 4.0 0.00 0.00 0.00 92 1002.9
20260507034830 73 315 0.0 4.0 0.00 0.00 0.00 92 1002.9
20260507034320 73 315 2.0 4.0 0.00 0.00 0.00 93 1003.0
20260507033810 73 338 0.0 2.0 0.00 0.00 0.00 93 1003.4
20260507033259 73 338 0.0 0.0 0.00 0.00 0.00 92 1003.3
20260507032749 73 338 0.0 0.0 0.00 0.00 0.00 92 1003.6
20260507032239 73 315 0.0 0.0 0.00 0.00 0.00 92 1003.6
20260507031730 73 315 0.0 2.0 0.00 0.00 0.00 92 1003.6
20260507030159 73 315 1.0 4.0 0.00 0.00 0.00 92 1003.5
20260507025138 73 0 2.0 4.0 0.00 0.00 0.07 91 1003.3
20260507024628 73 0 2.0 4.0 0.00 0.00 0.07 91 1003.5
20260507024119 73 338 2.0 4.0 0.00 0.00 0.07 91 1003.4
20260507023608 74 0 2.0 4.0 0.00 0.00 0.07 90 1003.5
20260507023059 74 0 3.0 4.0 0.00 0.00 0.07 90 1003.3
20260507022548 74 338 2.0 4.0 0.00 0.00 0.07 90 1003.4
20260507022039 74 0 2.0 4.0 0.00 0.00 0.07 89 1003.5
20260507021533 74 0 2.0 4.0 0.00 0.00 0.07 89 1003.5
20260507021017 75 338 2.0 2.0 0.00 0.00 0.07 89 1003.7
20260507020508 75 338 0.0 2.0 0.00 0.00 0.07 89 1003.7
20260507015957 75 315 0.0 2.0 0.00 0.00 0.07 89 1003.7
20260507015448 75 315 0.0 2.0 0.00 0.00 0.07 89 1003.8
20260507014937 75 315 0.0 2.0 0.00 0.00 0.07 89 1003.7
20260507014427 74 338 1.0 2.0 0.00 0.00 0.07 89 1003.8
20260507013917 74 338 0.0 0.0 0.00 0.00 0.07 89 1003.7
20260507013407 74 338 0.0 0.0 0.00 0.00 0.07 89 1003.5
20260507012857 74 338 0.0 2.0 0.00 0.00 0.07 88 1003.6
20260507012347 75 338 0.0 2.0 0.00 0.00 0.07 88 1003.7
20260507011837 75 315 0.0 2.0 0.00 0.00 0.07 88 1003.6
20260507011327 75 338 0.0 2.0 0.00 0.00 0.07 88 1003.3
20260507010306 75 338 1.0 4.0 0.00 0.00 0.07 87 1003.1
20260507005755 75 338 2.0 6.0 0.00 0.00 0.07 87 1002.9
20260507005246 75 0 2.0 7.0 0.00 0.00 0.07 87 1002.8
20260507004226 76 45 4.0 7.0 0.00 0.00 0.07 87 1002.3
20260507003715 76 23 4.0 8.0 0.00 0.00 0.07 86 1002.5
20260507003206 76 68 4.0 8.0 0.00 0.00 0.07 86 1002.5
20260507002656 76 45 4.0 11.0 0.00 0.00 0.07 86 1002.3
20260507002145 76 0 4.0 13.0 0.00 0.00 0.07 85 1002.3
20260507001125 77 23 4.0 13.0 0.00 0.00 0.07 85 1002.2
20260507000615 77 23 5.0 11.0 0.00 0.00 0.07 85 1002.3
20260507000104 76 23 5.0 11.0 0.00 0.00 0.07 85 1002.2
20260506235557 76 23 4.0 9.0 0.00 0.00 0.07 85 1002.2
20260506235045 77 0 4.0 8.0 0.00 0.00 0.07 85 1002.2
20260506234535 77 0 4.0 8.0 0.00 0.00 0.07 84 1002.4
20260506234024 77 45 4.0 9.0 0.00 0.00 0.07 84 1002.3
20260506233005 77 23 4.0 11.0 0.00 0.00 0.07 83 1002.5
20260506231944 77 23 4.0 11.0 0.00 0.00 0.07 83 1002.1
20260506230924 77 0 4.0 9.0 0.00 0.00 0.07 83 1002.2
20260506230414 77 23 4.0 9.0 0.00 0.00 0.07 84 1002.2
20260506225904 77 45 5.0 8.0 0.00 0.00 0.07 84 1002.1
20260506224843 76 0 4.0 7.0 0.00 0.00 0.07 86 1002.3
20260506224333 76 338 4.0 6.0 0.00 0.00 0.07 87 1002.4
20260506223823 76 45 3.0 6.0 0.00 0.00 0.07 87 1002.4
20260506223313 76 68 2.0 6.0 0.00 0.00 0.07 88 1002.6
20260506222802 76 45 2.0 4.0 0.00 0.00 0.07 89 1002.5
20260506222253 76 45 2.0 4.0 0.00 0.00 0.07 89 1002.8
20260506221742 77 23 2.0 4.0 0.00 0.00 0.07 88 1002.6
20260506221233 77 23 2.0 4.0 0.00 0.00 0.07 88 1002.5
20260506220723 78 315 0.0 2.0 0.00 0.00 0.07 86 1002.7
20260506220212 78 315 0.0 2.0 0.00 0.00 0.07 86 1002.9
20260506215703 79 293 0.0 2.0 0.00 0.00 0.07 85 1003.0
20260506215152 79 293 0.0 2.0 0.00 0.00 0.07 85 1003.2
20260506214132 80 315 0.0 2.0 0.00 0.00 0.07 84 1003.4
20260506213622 80 315 0.0 2.0 0.00 0.00 0.07 84 1003.3
20260506213113 81 315 1.0 2.0 0.00 0.00 0.07 82 1003.3
20260506211541 82 293 1.0 4.0 0.00 0.00 0.07 80 1003.3
20260506211032 83 315 3.0 4.0 0.00 0.00 0.07 79 1003.3
20260506210011 84 315 2.0 4.0 0.00 0.00 0.07 78 1003.4
20260506205501 84 315 2.0 4.0 0.00 0.00 0.07 78 1003.4
20260506204951 84 315 2.0 4.0 0.00 0.00 0.07 77 1003.5
20260506204440 84 315 2.0 4.0 0.00 0.00 0.07 77 1003.5
20260506203420 86 293 2.0 9.0 0.00 0.00 0.07 74 1003.6
20260506202910 86 315 5.0 9.0 0.00 0.00 0.07 71 1003.5
20260506202359 86 315 5.0 9.0 0.00 0.00 0.07 71 1003.4
20260506201850 86 0 2.0 4.0 0.00 0.00 0.07 71 1003.3
20260506201340 86 0 2.0 8.0 0.00 0.00 0.07 71 1003.3
20260506200829 85 23 3.0 8.0 0.00 0.00 0.07 71 1003.5
20260506200319 85 23 2.0 8.0 0.00 0.00 0.07 72 1003.4
20260506195810 85 23 4.0 9.0 0.00 0.00 0.07 72 1003.3
20260506194750 85 23 4.0 9.0 0.00 0.00 0.07 72 1003.4
20260506194239 85 0 3.0 9.0 0.00 0.00 0.07 72 1003.6
20260506193729 86 23 4.0 11.0 0.00 0.00 0.07 70 1003.4
20260506193220 86 45 7.0 11.0 0.00 0.00 0.07 70 1003.6
20260506192708 86 23 4.0 8.0 0.00 0.00 0.07 71 1003.3
20260506192200 86 45 4.0 8.0 0.00 0.00 0.07 71 1003.6
20260506191139 85 23 4.0 11.0 0.00 0.00 0.07 72 1003.8
20260506190629 86 338 5.0 11.0 0.00 0.00 0.07 71 1003.7
20260506190119 87 23 4.0 11.0 0.00 0.00 0.07 70 1003.8
20260506185058 87 23 4.0 14.0 0.00 0.00 0.07 70 1003.8
20260506184547 86 23 6.0 11.0 0.00 0.00 0.07 70 1003.7
20260506184038 87 315 6.0 11.0 0.00 0.00 0.07 70 1003.6
20260506183528 87 45 7.0 13.0 0.00 0.00 0.07 70 1003.8
20260506183017 86 23 7.0 13.0 0.00 0.00 0.07 70 1003.7
20260506182508 86 23 5.0 13.0 0.00 0.00 0.07 69 1004.0
20260506181957 86 23 4.0 16.0 0.00 0.00 0.07 70 1004.1
20260506180937 86 45 4.0 13.0 0.00 0.00 0.07 71 1004.4
20260506180427 86 0 8.0 11.0 0.00 0.00 0.07 70 1004.4
20260506175914 83 45 8.0 11.0 0.00 0.00 0.07 76 1007.4
20260506170141 85 315 4.0 7.0 0.00 0.00 0.07 72 1006.5
20260506165631 85 315 4.0 7.0 0.00 0.00 0.07 72 1006.5
20260506165120 85 315 4.0 7.0 0.00 0.00 0.07 72 1006.5
20260506164611 85 315 4.0 7.0 0.00 0.00 0.07 72 1006.5
20260506164100 85 315 4.0 7.0 0.00 0.00 0.07 72 1006.5
20260506163550 85 315 4.0 7.0 0.00 0.00 0.07 72 1006.5
20260506163045 85 315 4.0 7.0 0.00 0.00 0.07 72 1006.5
20260506162019 85 315 4.0 7.0 0.00 0.00 0.07 72 1006.5
20260506161515 85 315 4.0 11.0 0.00 0.00 0.07 72 1006.5
20260506161000 85 315 4.0 13.0 0.00 0.00 0.07 72 1006.5
20260506160449 85 0 8.0 13.0 0.00 0.00 0.07 72 1006.3
20260506155939 84 45 3.0 14.0 0.00 0.00 0.07 74 1006.7
20260506155429 84 23 6.0 14.0 0.00 0.00 0.07 74 1006.8
20260506154919 84 0 8.0 15.0 0.00 0.00 0.07 74 1006.9
20260506154409 84 68 8.0 15.0 0.00 0.00 0.07 74 1007.0
20260506153859 84 0 8.0 16.0 0.00 0.00 0.07 74 1007.0
20260506152329 83 23 4.0 15.0 0.00 0.00 0.07 78 1007.5
20260506151819 83 0 8.0 14.0 0.00 0.00 0.07 77 1007.6
20260506151308 83 23 8.0 15.0 0.00 0.00 0.07 77 1007.8
20260506150758 82 45 8.0 15.0 0.00 0.00 0.07 78 1008.0
20260506145738 74 0 5.0 8.0 0.00 0.00 0.07 62 1012.7
20260506145228 70 0.0 0.0 0.00 0.00 0.07 98